[[{"header":{"parameterUnit":"m.s-1","parameterCategory":1,"la1":30.2992,"la2":30.254,"lo1":-89.0895,"lo2":-89.0443,"dy":0.0025,"dx":0.0025,"nx":19,"ny":19,"refTime":"2026-03-21T21:00:00:Z","depth":0,"parameterNumber":2,"parameterNumberName":"U-component_of_WINDS"},"data":[0,0,0,3.1584,3.1588,3.1778,3.1779,3.2038,3.204,0,0,0,0,0,0,0,0,0,0,0,3.1533,3.1534,3.1584,3.1588,3.1778,3.1779,3.2037,3.204,0,0,0,0,0,0,0,0,0,0,0,3.1532,3.1534,3.1536,3.1589,3.1778,3.1779,3.2037,3.1889,0,0,0,0,0,0,0,0,0,0,3.1702,3.1658,3.1533,3.1536,3.159,3.1778,3.1779,3.1881,3.1898,3.1957,0,3.2007,0,3.2027,3.2058,3.2059,0,0,0,3.1586,3.1645,3.1691,3.1537,3.1592,3.1778,3.1692,3.1891,3.1909,3.1979,3.201,3.202,3.2032,3.206,3.2061,3.2401,3.2402,0,0,3.1575,3.1571,3.1678,3.1703,3.167,3.1686,3.1698,3.1902,3.1937,3.2011,3.2025,3.2036,3.2062,3.2064,3.2399,3.2401,0,0,0,3.1547,3.1563,3.1604,3.1693,3.1726,3.1691,3.1705,3.1928,3.1942,3.2028,3.2039,3.2063,3.2066,3.2397,3.24,3.2478,0,0,0,3.154,3.1547,3.16,3.1599,3.1722,3.1828,3.1727,3.1928,3.1951,3.2038,3.2063,3.2069,3.2395,3.2398,3.2472,3.2517,0,0,0,3.1519,3.1544,3.1573,3.1598,3.1679,3.1825,3.185,3.1933,3.1958,3.2059,3.207,3.2394,3.2398,3.2466,3.2508,3.2605,0,0,0,3.1495,3.1641,3.1574,3.1742,3.1678,3.1871,3.1849,3.1994,3.2091,3.2064,3.2395,3.2399,3.2465,3.2502,3.2599,3.2686,3.2721,0,0,3.1677,3.1663,3.1763,3.1708,3.1911,3.1842,3.206,3.2154,3.2171,3.2324,3.2332,3.2474,3.2507,3.2604,3.2921,3.2949,0,0,0,3.1819,3.1891,3.1946,3.2035,3.2109,3.2178,3.2239,3.2274,3.2404,3.2247,3.2536,3.2556,3.2613,3.2655,3.2679,3.2729,3.2418,3.2418,3.2417,3.2071,3.2081,3.2247,3.2281,3.2369,3.2431,3.2505,3.2564,3.255,3.2619,3.2664,3.2855,3.2904,3.2922,3.2974,3.2711,3.2711,3.2711,3.2712,3.2339,3.2443,3.242,3.2573,3.2585,3.2715,3.2782,3.2768,3.2894,3.2821,3.2872,3.2792,3.2952,3.2998,3.2718,3.2717,3.2716,3.2715,3.2715,3.2505,3.2557,3.2596,3.2727,3.2829,3.286,3.2981,3.2988,3.2997,3.3047,3.3097,3.3096,3.3096,3.307,3.3071,3.3071,3.3072,3.3073,3.3073,3.2662,3.2703,3.2802,3.2894,3.2953,3.3033,3.3099,3.3159,3.3228,3.3224,3.3225,3.3206,3.2965,3.2904,3.3083,3.3081,3.308,3.3079,3.3078,3.2931,3.2871,3.3024,3.3084,3.3193,3.3295,3.3303,3.3425,3.3477,3.3537,3.3508,3.3328,3.3315,3.3296,3.3246,3.3503,3.3503,3.3503,3.3503,3.3071,3.3065,3.3223,3.3319,3.3413,3.3436,3.3613,3.3667,3.3714,3.3747,3.3712,3.3646,3.3626,3.3626,3.36,3.3553,3.3882,3.3883,3.3883,3.3238,3.3241,3.3388,3.343,3.3516,3.3592,3.376,3.3874,3.3915,3.3899,3.3774,3.3758,3.3653,3.3617,3.3597,3.3557,3.3472,0,0]},{"header":{"parameterUnit":"m.s-1","parameterCategory":1,"la1":30.2992,"la2":30.254,"lo1":-89.0895,"lo2":-89.0443,"dy":0.0025,"dx":0.0025,"nx":19,"ny":19,"refTime":"2026-03-21T21:00:00:Z","depth":0,"parameterNumber":3,"parameterNumberName":"V-component_of_WINDS"},"data":[0,0,0,4.474,4.4744,4.4943,4.4944,4.5194,4.5196,0,0,0,0,0,0,0,0,0,0,0,4.4679,4.4681,4.4739,4.4744,4.4943,4.4944,4.5193,4.5196,0,0,0,0,0,0,0,0,0,0,0,4.4678,4.468,4.4682,4.4745,4.4943,4.4944,4.5193,4.5044,0,0,0,0,0,0,0,0,0,0,4.4851,4.4794,4.468,4.4682,4.4746,4.4943,4.4944,4.5037,4.5053,4.5102,0,4.5146,0,4.5175,4.5212,4.5213,0,0,0,4.4745,4.478,4.4836,4.4683,4.4748,4.4943,4.4854,4.5046,4.5065,4.5123,4.5149,4.5158,4.5179,4.5214,4.5215,4.5495,4.5496,0,0,4.4734,4.4714,4.4823,4.4848,4.4818,4.4847,4.486,4.5057,4.5083,4.515,4.5164,4.5183,4.5216,4.5218,4.5494,4.5495,0,0,0,4.4702,4.4706,4.4757,4.4837,4.4874,4.4853,4.4868,4.5075,4.5093,4.5167,4.5186,4.5217,4.522,4.5492,4.5494,4.5537,0,0,0,4.4695,4.4687,4.4752,4.4741,4.487,4.4977,4.488,4.5079,4.5102,4.5185,4.5217,4.5222,4.5491,4.5493,4.5533,4.5561,0,0,0,4.4667,4.4684,4.4712,4.4739,4.4824,4.4974,4.5004,4.5085,4.5114,4.5213,4.5223,4.549,4.5493,4.553,4.5555,4.5629,0,0,0,4.4629,4.4747,4.4712,4.4851,4.4823,4.5,4.5003,4.5136,4.5226,4.5218,4.5491,4.5494,4.5528,4.5552,4.5625,4.5688,4.5712,0,0,4.4766,4.4762,4.4845,4.4821,4.4999,4.4971,4.5155,4.5257,4.5284,4.5423,4.543,4.5535,4.5555,4.5628,4.5855,4.5874,0,0,0,4.4882,4.4941,4.4993,4.5079,4.516,4.5232,4.5308,4.5346,4.5464,4.5352,4.5582,4.5594,4.5638,4.5669,4.5686,4.5725,4.5507,4.5507,4.5507,4.5045,4.5075,4.5214,4.5269,4.5352,4.543,4.5499,4.5563,4.5568,4.5622,4.5663,4.5797,4.5833,4.5845,4.5886,4.5699,4.5699,4.5699,4.5699,4.5248,4.5337,4.5342,4.5479,4.551,4.5625,4.5704,4.5704,4.5814,4.5769,4.5809,4.5756,4.5866,4.5902,4.5703,4.5702,4.5702,4.5701,4.5701,4.5358,4.5406,4.5451,4.5579,4.5674,4.5724,4.5831,4.5854,4.5877,4.5917,4.5964,4.5963,4.5966,4.5938,4.5938,4.5938,4.5939,4.5939,4.594,4.5455,4.5505,4.5593,4.5689,4.5748,4.5828,4.5907,4.5965,4.6035,4.6043,4.6044,4.6044,4.5871,4.5827,4.5947,4.5946,4.5945,4.5944,4.5943,4.5651,4.5611,4.5746,4.5805,4.5921,4.6013,4.6043,4.6158,4.6209,4.6261,4.6253,4.6121,4.6119,4.6106,4.607,4.6246,4.6246,4.6246,4.6246,4.5744,4.5746,4.589,4.5983,4.6076,4.6116,4.6268,4.633,4.6388,4.6421,4.6399,4.6353,4.6339,4.6345,4.6327,4.6294,4.6523,4.6524,4.6524,4.5866,4.5878,4.6003,4.6061,4.6153,4.6231,4.6375,4.6479,4.6536,4.6536,4.6448,4.6436,4.6362,4.6337,4.6334,4.6306,4.6245,0,0]}]]